Johnstown, PA

6:17 PM EDT on September 28, 2016 (GMT -0400)
Johnstown-Cambria County

Weather History for KJST - December, 2013

Change the Weather History Date:

Monday, December 30, 2013

  Actual Average Record
Temperature  
Mean Temperature 26 °F 26 °F  
Max Temperature 35 °F 33 °F 68 °F (1990)
Min Temperature 17 °F 19 °F -7 °F (1917)
Degree Days  
Heating Degree Days 39 39  
Month to date heating degree days 1017 1088  
Since 1 July heating degree days 2648 2545  
Cooling Degree Days 0 0  
Month to date cooling degree days 0 0  
Year to date cooling degree days 393 382  
Moisture  
Dew Point 20 °F    
Average Humidity 87    
Maximum Humidity 100    
Minimum Humidity 73    
Precipitation  
Precipitation 0.02 in 0.07 in 1.24 in (1954)
Month to date precipitation 3.16 2.49  
Year to date precipitation 37.15 33.54  
Sea Level Pressure  
Sea Level Pressure 29.99 in    
Wind  
Wind Speed 11 mph (WNW)    
Max Wind Speed 29 mph    
Max Gust Speed 35 mph    
Visibility 5 miles    
Events Rain , Snow    
T = Trace of Precipitation, MM = Missing Value Source: NWS Daily Summary

Daily Weather History Graph

Daily Weather History Graph

Search for Another Location

Airport or City:

Trip Planner

Search our weather history database for the weather conditions in past years. The results will help you decide how hot, cold, wet, or windy it might be!

Date:

Astronomy

Dec. 30, 2013 Rise Set
Actual Time 7:37 AM EST 4:58 PM EST
Civil Twilight 7:07 AM EST 5:28 PM EST
Nautical Twilight 6:33 AM EST 6:03 PM EST
Astronomical Twilight 5:59 AM EST 6:36 PM EST
Moon 5:25 AM EST (12/30) 3:29 PM EST (12/30)
Length of Visible Light 10h 21m
Length of Day
9h 20m
Waning Crescent, 5% of the Moon is Illuminated
Dec 30
Waning Crescent
Jan 1
New
Jan 7
First Quarter
Jan 15
Full
Jan 24
Last Quarter

Hourly Weather History & Observations

Time (EST) Temp. Windchill Dew Point Humidity Pressure Visibility Wind Dir Wind Speed Gust Speed Precip Events Conditions
12:54 AM 35.1 °F 23.8 °F 34.0 °F 96% 29.81 in 6.0 mi West 20.7 mph 29.9 mph 0.00 in Rain Light Rain
1:46 AM 35.1 °F 25.5 °F 33.1 °F 92% 29.76 in 7.0 mi West 15.0 mph 25.3 mph 0.00 in Rain Light Rain
1:54 AM 35.1 °F 25.2 °F 33.1 °F 92% 29.81 in 7.0 mi West 16.1 mph 27.6 mph 0.01 in Rain Light Rain
2:01 AM 34.0 °F 23.8 °F 32.0 °F 92% 29.77 in 7.0 mi West 16.1 mph 28.8 mph 0.00 in Rain Light Rain
2:06 AM 34.0 °F 23.4 °F 32.0 °F 92% 29.77 in 8.0 mi West 17.3 mph 28.8 mph 0.00 in Rain Light Rain
2:25 AM 34.0 °F 23.8 °F 32.0 °F 92% 29.77 in 6.0 mi West 16.1 mph 26.5 mph 0.00 in Rain Light Rain
2:39 AM 34.0 °F 23.8 °F 32.0 °F 92% 29.78 in 5.0 mi West 16.1 mph 24.2 mph 0.00 in Rain Light Rain
2:54 AM 34.0 °F 24.2 °F 33.1 °F 96% 29.84 in 4.0 mi West 15.0 mph - 0.00 in Rain Light Rain
3:54 AM 32.0 °F 20.8 °F 30.9 °F 96% 29.86 in 3.0 mi West 17.3 mph 25.3 mph 0.01 in Rain Light Freezing Rain
4:12 AM 30.0 °F 16.0 °F 28.9 °F 96% 29.82 in 2.5 mi NW 25.3 mph 33.4 mph 0.00 in Rain Light Freezing Rain
4:16 AM 28.9 °F 14.5 °F 28.0 °F 96% 29.82 in 3.0 mi NW 25.3 mph 35.7 mph 0.00 in Rain Light Freezing Rain
4:44 AM 28.0 °F 15.3 °F 27.0 °F 96% 29.84 in 5.0 mi WNW 18.4 mph 28.8 mph 0.00 in   Overcast
4:54 AM 28.0 °F 15.7 °F 27.0 °F 96% 29.91 in 6.0 mi WNW 17.3 mph 25.3 mph 0.00 in   Overcast
5:02 AM 28.0 °F 17.0 °F 27.0 °F 96% 29.85 in 5.0 mi West 13.8 mph 25.3 mph N/A   Overcast
5:13 AM 27.0 °F 15.2 °F 27.0 °F 100% 29.86 in 4.0 mi WNW 15.0 mph 20.7 mph 0.00 in Rain Light Freezing Rain
5:54 AM 26.1 °F 14.5 °F 26.1 °F 100% 29.95 in 3.0 mi WNW 13.8 mph - 0.00 in   Overcast
6:22 AM 25.0 °F 12.6 °F 25.0 °F 100% 29.90 in 8.0 mi WNW 15.0 mph 21.9 mph N/A   Overcast
6:54 AM 24.1 °F 13.7 °F 24.1 °F 100% 30.00 in 9.0 mi WNW 10.4 mph - N/A   Overcast
7:31 AM 24.1 °F 12.0 °F 23.0 °F 96% 29.94 in 10.0 mi WNW 13.8 mph 19.6 mph N/A   Overcast
7:54 AM 23.0 °F 12.4 °F 21.9 °F 96% 30.02 in 10.0 mi WNW 10.4 mph 25.3 mph N/A   Overcast
8:27 AM 23.0 °F 11.7 °F 21.0 °F 92% 29.98 in 10.0 mi NW 11.5 mph 21.9 mph N/A   Overcast
8:41 AM 23.0 °F 12.4 °F 21.0 °F 92% 29.98 in 9.0 mi WNW 10.4 mph 21.9 mph N/A   Overcast
8:54 AM 21.9 °F 9.2 °F 21.0 °F 96% 30.06 in 7.0 mi WNW 13.8 mph 20.7 mph N/A   Overcast
9:38 AM 21.9 °F 9.8 °F 21.0 °F 96% 30.00 in 2.0 mi WNW 12.7 mph - 0.00 in Snow Light Snow
9:50 AM 21.2 °F 7.3 °F 19.4 °F 93% 30.00 in 1.5 mi WNW 16.1 mph 20.7 mph 0.00 in Snow Light Snow
9:54 AM 21.9 °F 9.8 °F 19.9 °F 92% 30.08 in 1.2 mi WNW 12.7 mph 20.7 mph 0.00 in Snow Light Snow
10:21 AM 21.9 °F 8.7 °F 19.9 °F 92% 30.02 in 1.0 mi WNW 15.0 mph - 0.00 in Snow Light Snow
10:40 AM 21.9 °F 9.8 °F 19.9 °F 92% 30.02 in 1.2 mi WNW 12.7 mph - 0.00 in Snow Light Snow
10:54 AM 21.9 °F 8.7 °F 19.9 °F 92% 30.10 in 1.5 mi WNW 15.0 mph - 0.00 in Snow Light Snow
10:56 AM 21.9 °F 9.2 °F 19.9 °F 92% 30.02 in 1.5 mi WNW 13.8 mph - 0.00 in Snow Light Snow
11:09 AM 21.9 °F 8.7 °F 19.9 °F 92% 30.02 in 2.0 mi WNW 15.0 mph - 0.00 in Snow Light Snow
11:21 AM 21.9 °F 9.2 °F 19.9 °F 92% 30.02 in 1.8 mi NW 13.8 mph - 0.00 in Snow Light Snow
11:54 AM 21.0 °F 7.6 °F 19.0 °F 92% 30.10 in 2.0 mi NW 15.0 mph - 0.00 in Snow Light Snow
12:15 PM 19.9 °F 5.7 °F 18.0 °F 92% 30.02 in 1.2 mi NW 16.1 mph - 0.00 in Snow Light Snow
12:33 PM 19.9 °F 5.7 °F 17.1 °F 89% 30.02 in 0.8 mi NW 16.1 mph - 0.00 in Snow Light Snow
12:43 PM 19.9 °F 6.7 °F 17.1 °F 89% 30.02 in 1.0 mi WNW 13.8 mph 19.6 mph 0.00 in Snow Light Snow
12:54 PM 19.9 °F 6.7 °F 17.1 °F 89% 30.10 in 1.0 mi NNW 13.8 mph - 0.00 in Snow Light Snow
1:23 PM 19.9 °F 7.9 °F 17.1 °F 89% 30.02 in 2.5 mi WNW 11.5 mph - 0.00 in Snow Light Snow
1:31 PM 19.9 °F 7.9 °F 17.1 °F 89% 30.02 in 2.0 mi NW 11.5 mph - 0.00 in Snow Light Snow
1:34 PM 19.9 °F 6.7 °F 17.1 °F 89% 30.02 in 1.8 mi NW 13.8 mph - 0.00 in Snow Light Snow
1:46 PM 19.0 °F 6.8 °F 15.1 °F 85% 30.02 in 1.5 mi NW 11.5 mph - 0.00 in Snow Light Snow
1:54 PM 19.0 °F 6.8 °F 15.1 °F 85% 30.11 in 2.0 mi NW 11.5 mph - 0.00 in Snow Light Snow
2:05 PM 19.0 °F 6.1 °F 15.1 °F 85% 30.03 in 3.0 mi NW 12.7 mph - 0.00 in Snow Light Snow
2:54 PM 19.9 °F 9.3 °F 14.0 °F 78% 30.11 in 9.0 mi NW 9.2 mph - 0.00 in   Overcast
3:54 PM 19.0 °F 8.2 °F 12.9 °F 77% 30.12 in 10.0 mi WNW 9.2 mph - 0.00 in   Overcast
4:52 PM 19.4 °F 9.5 °F 14.0 °F 80% 30.04 in 2.0 mi WNW 8.1 mph - 0.00 in Snow Light Snow
4:54 PM 18.0 °F 6.9 °F 14.0 °F 84% 30.14 in 2.5 mi WNW 9.2 mph - 0.00 in Snow Light Snow
5:06 PM 18.0 °F 8.7 °F 14.0 °F 84% 30.04 in 3.0 mi NW 6.9 mph - 0.00 in Snow Light Snow
5:45 PM 18.0 °F 6.9 °F 14.0 °F 84% 30.04 in 4.0 mi WNW 9.2 mph - 0.00 in Snow Light Snow
5:54 PM 18.0 °F 7.7 °F 14.0 °F 84% 30.15 in 4.0 mi WNW 8.1 mph - 0.00 in Snow Light Snow
6:36 PM 17.1 °F 8.7 °F 14.0 °F 88% 30.04 in 3.0 mi West 5.8 mph - 0.00 in Snow Light Snow
6:54 PM 17.1 °F 8.7 °F 14.0 °F 88% 30.15 in 5.0 mi West 5.8 mph - 0.00 in Snow Light Snow
7:15 PM 17.1 °F 4.3 °F 12.0 °F 81% 30.06 in 9.0 mi West 11.5 mph 16.1 mph 0.00 in   Overcast
7:40 PM 17.1 °F 4.3 °F 12.0 °F 81% 30.07 in 10.0 mi West 11.5 mph - 0.00 in   Overcast
7:54 PM 17.1 °F 5.0 °F 10.9 °F 77% 30.17 in 5.0 mi West 10.4 mph - 0.00 in Snow Light Snow
8:54 PM 17.1 °F 7.6 °F 10.0 °F 74% 30.16 in 10.0 mi WNW 6.9 mph - 0.00 in   Overcast
9:54 PM 17.1 °F 10.0 °F 10.9 °F 77% 30.16 in 10.0 mi West 4.6 mph - 0.00 in   Overcast
10:54 PM 17.1 °F 7.6 °F 10.9 °F 77% 30.15 in 10.0 mi West 6.9 mph - 0.00 in   Overcast
11:54 PM 17.1 °F 10.0 °F 12.0 °F 81% 30.14 in 10.0 mi WSW 4.6 mph - 0.00 in   Overcast